| time (UTC) | temp F | wind direction | speed MPH | gust MPH | rain 1hr in | rain 24hr in | rain mn in | humidity % | barometer mb |
| 20260503004903 | 34 | 354 | 0.0 | 2.0 | 0.00 | 0.00 | 0.00 | 87 | 1014.5 |
| 20260503004702 | 34 | 334 | 0.0 | 1.0 | 0.00 | 0.00 | 0.00 | 87 | 1014.5 |
| 20260503004202 | 34 | 340 | 0.0 | 1.0 | 0.00 | 0.00 | 0.00 | 87 | 1014.5 |
| 20260503003803 | 34 | 338 | 0.0 | 1.0 | 0.00 | 0.00 | 0.00 | 87 | 1014.3 |
| 20260503003702 | 34 | 338 | 0.0 | 2.0 | 0.00 | 0.00 | 0.00 | 87 | 1014.4 |
| 20260503003202 | 33 | 29 | 0.0 | 2.0 | 0.00 | 0.00 | 0.00 | 87 | 1014.4 |
| 20260503002702 | 33 | 30 | 0.0 | 1.0 | 0.00 | 0.00 | 0.00 | 86 | 1014.3 |
| 20260503002202 | 33 | 5 | 0.0 | 1.0 | 0.00 | 0.00 | 0.00 | 86 | 1014.4 |
| 20260503001702 | 33 | 45 | 0.0 | 1.0 | 0.00 | 0.00 | 0.00 | 85 | 1014.4 |
| 20260503001603 | 34 | 16 | 0.0 | 1.0 | 0.00 | 0.00 | 0.00 | 85 | 1014.4 |
| 20260503001202 | 34 | 60 | 0.0 | 0.0 | 0.00 | 0.00 | 0.00 | 85 | 1014.4 |
| 20260503000702 | 34 | 60 | 0.0 | 0.0 | 0.00 | 0.00 | 0.00 | 85 | 1014.4 |
| 20260503000503 | 34 | 60 | 0.0 | 1.0 | 0.00 | 0.00 | 0.00 | 85 | 1014.4 |
| 20260503000203 | 34 | 78 | 0.0 | 1.0 | 0.00 | 0.00 | 0.00 | 86 | 1014.4 |
| 20260502235702 | 34 | 334 | 0.0 | 2.0 | 0.00 | 0.00 | 0.00 | 86 | 1014.4 |
| 20260502235403 | 34 | 338 | 0.0 | 3.0 | 0.00 | 0.00 | 0.00 | 86 | 1014.5 |
| 20260502235202 | 34 | 313 | 1.0 | 3.0 | 0.00 | 0.00 | 0.00 | 86 | 1014.5 |
| 20260502234702 | 34 | 343 | 0.0 | 0.0 | 0.00 | 0.00 | 0.00 | 85 | 1014.6 |
| 20260502234303 | 34 | 343 | 0.0 | 1.0 | 0.00 | 0.00 | 0.00 | 86 | 1014.6 |
| 20260502234202 | 34 | 343 | 0.0 | 1.0 | 0.00 | 0.00 | 0.00 | 86 | 1014.7 |
| 20260502233702 | 34 | 0 | 0.0 | 2.0 | 0.00 | 0.00 | 0.00 | 85 | 1014.7 |
| 20260502233202 | 34 | 39 | 2.0 | 2.0 | 0.00 | 0.00 | 0.00 | 85 | 1014.7 |
| 20260502232702 | 34 | 18 | 0.0 | 0.0 | 0.00 | 0.00 | 0.00 | 84 | 1014.7 |
| 20260502232202 | 35 | 18 | 0.0 | 0.0 | 0.00 | 0.00 | 0.00 | 83 | 1014.7 |
| 20260502232103 | 35 | 18 | 0.0 | 0.0 | 0.00 | 0.00 | 0.00 | 83 | 1014.7 |
| 20260502231703 | 35 | 18 | 0.0 | 0.0 | 0.00 | 0.00 | 0.00 | 83 | 1014.7 |
| 20260502231202 | 35 | 18 | 0.0 | 2.0 | 0.00 | 0.00 | 0.00 | 83 | 1014.7 |
| 20260502231003 | 36 | 37 | 1.0 | 2.0 | 0.00 | 0.00 | 0.00 | 83 | 1014.7 |
| 20260502230703 | 36 | 334 | 0.0 | 2.0 | 0.00 | 0.00 | 0.00 | 84 | 1014.7 |
| 20260502230202 | 36 | 23 | 0.0 | 3.0 | 0.00 | 0.00 | 0.00 | 84 | 1014.7 |
| 20260502225903 | 36 | 310 | 3.0 | 4.0 | 0.00 | 0.00 | 0.00 | 84 | 1014.6 |
| 20260502225702 | 36 | 327 | 2.0 | 4.0 | 0.00 | 0.00 | 0.00 | 85 | 1014.6 |
| 20260502225202 | 36 | 336 | 0.0 | 2.0 | 0.00 | 0.00 | 0.00 | 83 | 1014.6 |
| 20260502224803 | 36 | 22 | 0.0 | 4.0 | 0.00 | 0.00 | 0.00 | 84 | 1014.6 |
| 20260502224702 | 36 | 348 | 1.0 | 4.0 | 0.00 | 0.00 | 0.00 | 84 | 1014.6 |
| 20260502224202 | 36 | 316 | 4.0 | 4.0 | 0.00 | 0.00 | 0.00 | 84 | 1014.7 |
| 20260502223702 | 36 | 344 | 2.0 | 2.0 | 0.00 | 0.00 | 0.00 | 83 | 1014.6 |
| 20260502223202 | 36 | 316 | 0.0 | 2.0 | 0.00 | 0.00 | 0.00 | 83 | 1014.6 |
| 20260502222702 | 36 | 14 | 1.0 | 1.0 | 0.00 | 0.00 | 0.00 | 83 | 1014.6 |
| 20260502222603 | 36 | 21 | 1.0 | 1.0 | 0.00 | 0.00 | 0.00 | 82 | 1014.6 |
| 20260502222202 | 36 | 331 | 0.0 | 1.0 | 0.00 | 0.00 | 0.00 | 82 | 1014.6 |
| 20260502221702 | 36 | 8 | 0.0 | 3.0 | 0.00 | 0.00 | 0.00 | 82 | 1014.5 |
| 20260502221503 | 36 | 329 | 2.0 | 6.0 | 0.00 | 0.00 | 0.00 | 82 | 1014.5 |
| 20260502221202 | 36 | 345 | 0.0 | 6.0 | 0.00 | 0.00 | 0.00 | 82 | 1014.5 |
| 20260502220403 | 36 | 323 | 3.0 | 5.0 | 0.00 | 0.00 | 0.00 | 82 | 1014.5 |
| 20260502220202 | 36 | 327 | 4.0 | 5.0 | 0.00 | 0.00 | 0.00 | 82 | 1014.4 |
| 20260502215702 | 37 | 310 | 0.0 | 6.0 | 0.00 | 0.00 | 0.00 | 82 | 1014.4 |
| 20260502215305 | 37 | 336 | 1.0 | 4.0 | 0.00 | 0.00 | 0.00 | 82 | 1014.4 |
| 20260502215202 | 37 | 323 | 2.0 | 4.0 | 0.00 | 0.00 | 0.00 | 82 | 1014.4 |
| 20260502214702 | 37 | 330 | 3.0 | 4.0 | 0.00 | 0.00 | 0.00 | 81 | 1014.3 |
| 20260502214202 | 37 | 354 | 2.0 | 5.0 | 0.00 | 0.00 | 0.00 | 82 | 1014.3 |
| 20260502213702 | 37 | 313 | 2.0 | 5.0 | 0.00 | 0.00 | 0.00 | 82 | 1014.4 |
| 20260502213202 | 37 | 334 | 3.0 | 5.0 | 0.00 | 0.00 | 0.00 | 82 | 1014.4 |
| 20260502213103 | 37 | 343 | 2.0 | 5.0 | 0.00 | 0.00 | 0.00 | 81 | 1014.5 |
| 20260502212702 | 37 | 333 | 1.0 | 3.0 | 0.00 | 0.00 | 0.00 | 81 | 1014.4 |
| 20260502212202 | 37 | 323 | 2.0 | 4.0 | 0.00 | 0.00 | 0.00 | 81 | 1014.5 |
| 20260502212004 | 37 | 327 | 0.0 | 4.0 | 0.00 | 0.00 | 0.00 | 81 | 1014.5 |
| 20260502211702 | 37 | 327 | 0.0 | 4.0 | 0.00 | 0.00 | 0.00 | 80 | 1014.6 |
| 20260502211202 | 37 | 324 | 2.0 | 4.0 | 0.00 | 0.00 | 0.00 | 80 | 1014.6 |
| 20260502210904 | 37 | 324 | 3.0 | 4.0 | 0.00 | 0.00 | 0.00 | 80 | 1014.6 |
| 20260502210702 | 37 | 316 | 3.0 | 4.0 | 0.00 | 0.00 | 0.00 | 81 | 1014.5 |
| 20260502210202 | 37 | 330 | 2.0 | 6.0 | 0.00 | 0.00 | 0.00 | 81 | 1014.5 |
| 20260502205804 | 37 | 340 | 2.0 | 6.0 | 0.00 | 0.00 | 0.00 | 81 | 1014.5 |
| 20260502205702 | 37 | 307 | 5.0 | 6.0 | 0.00 | 0.00 | 0.00 | 81 | 1014.5 |
| 20260502205202 | 38 | 347 | 0.0 | 4.0 | 0.00 | 0.00 | 0.00 | 80 | 1014.4 |
| 20260502204702 | 38 | 351 | 1.0 | 3.0 | 0.00 | 0.00 | 0.00 | 80 | 1014.5 |
| 20260502204202 | 38 | 29 | 1.0 | 5.0 | 0.00 | 0.00 | 0.00 | 80 | 1014.5 |
| 20260502203702 | 38 | 337 | 3.0 | 6.0 | 0.00 | 0.00 | 0.00 | 80 | 1014.5 |
| 20260502203604 | 38 | 312 | 3.0 | 6.0 | 0.00 | 0.00 | 0.00 | 80 | 1014.5 |
| 20260502203202 | 38 | 316 | 2.0 | 3.0 | 0.00 | 0.00 | 0.00 | 79 | 1014.5 |
| 20260502202702 | 38 | 28 | 0.0 | 0.0 | 0.00 | 0.00 | 0.00 | 78 | 1014.5 |
| 20260502202504 | 39 | 28 | 0.0 | 0.0 | 0.00 | 0.00 | 0.00 | 78 | 1014.5 |
| 20260502202202 | 39 | 28 | 0.0 | 3.0 | 0.00 | 0.00 | 0.00 | 78 | 1014.4 |
| 20260502201702 | 39 | 0 | 0.0 | 2.0 | 0.00 | 0.00 | 0.00 | 78 | 1014.5 |
| 20260502201404 | 39 | 0 | 0.0 | 3.0 | 0.00 | 0.00 | 0.00 | 78 | 1014.6 |
| 20260502201202 | 39 | 284 | 0.0 | 3.0 | 0.00 | 0.00 | 0.00 | 78 | 1014.6 |
| 20260502200702 | 39 | 322 | 1.0 | 3.0 | 0.00 | 0.00 | 0.00 | 79 | 1014.6 |
| 20260502200304 | 39 | 337 | 2.0 | 4.0 | 0.00 | 0.00 | 0.00 | 79 | 1014.7 |
| 20260502200202 | 39 | 345 | 0.0 | 4.0 | 0.00 | 0.00 | 0.00 | 79 | 1014.7 |
| 20260502195703 | 39 | 309 | 3.0 | 7.0 | 0.00 | 0.00 | 0.00 | 78 | 1014.6 |
| 20260502195203 | 40 | 322 | 0.0 | 1.0 | 0.00 | 0.00 | 0.00 | 78 | 1014.5 |
| 20260502194703 | 40 | 327 | 0.0 | 3.0 | 0.00 | 0.00 | 0.00 | 78 | 1014.6 |
| 20260502194203 | 40 | 331 | 0.0 | 2.0 | 0.00 | 0.00 | 0.00 | 78 | 1014.6 |
| 20260502194104 | 40 | 29 | 0.0 | 2.0 | 0.00 | 0.00 | 0.00 | 78 | 1014.6 |
| 20260502193703 | 40 | 320 | 0.0 | 2.0 | 0.00 | 0.00 | 0.00 | 78 | 1014.7 |
| 20260502193203 | 40 | 317 | 0.0 | 6.0 | 0.00 | 0.00 | 0.00 | 77 | 1014.6 |
| 20260502193004 | 40 | 317 | 0.0 | 6.0 | 0.00 | 0.00 | 0.00 | 77 | 1014.6 |
| 20260502192703 | 40 | 331 | 0.0 | 8.0 | 0.00 | 0.00 | 0.00 | 78 | 1014.6 |
| 20260502192203 | 40 | 327 | 4.0 | 5.0 | 0.00 | 0.00 | 0.00 | 77 | 1014.4 |
| 20260502191904 | 40 | 319 | 4.0 | 6.0 | 0.00 | 0.00 | 0.00 | 77 | 1014.5 |
| 20260502191703 | 40 | 300 | 5.0 | 7.0 | 0.00 | 0.00 | 0.00 | 77 | 1014.5 |
| 20260502191203 | 41 | 299 | 2.0 | 9.0 | 0.00 | 0.00 | 0.00 | 76 | 1014.4 |
| 20260502190804 | 41 | 313 | 6.0 | 8.0 | 0.00 | 0.00 | 0.00 | 76 | 1014.4 |
| 20260502190703 | 41 | 337 | 3.0 | 10.0 | 0.00 | 0.00 | 0.00 | 76 | 1014.4 |
| 20260502190203 | 41 | 320 | 4.0 | 14.0 | 0.00 | 0.00 | 0.00 | 76 | 1014.4 |
| 20260502185703 | 42 | 319 | 6.0 | 9.0 | 0.00 | 0.00 | 0.00 | 75 | 1014.4 |
| 20260502185203 | 42 | 315 | 3.0 | 10.0 | 0.00 | 0.00 | 0.00 | 75 | 1014.3 |
| 20260502184703 | 42 | 303 | 2.0 | 8.0 | 0.00 | 0.00 | 0.00 | 75 | 1014.1 |
| 20260502184604 | 42 | 327 | 2.0 | 8.0 | 0.00 | 0.00 | 0.00 | 75 | 1014.3 |
| 20260502184203 | 42 | 319 | 2.0 | 5.0 | 0.00 | 0.00 | 0.00 | 75 | 1014.3 |
| 20260502183703 | 42 | 288 | 1.0 | 6.0 | 0.00 | 0.00 | 0.00 | 75 | 1014.1 |
| 20260502183504 | 42 | 298 | 2.0 | 7.0 | 0.00 | 0.00 | 0.00 | 75 | 1014.3 |
| 20260502183203 | 42 | 299 | 1.0 | 8.0 | 0.00 | 0.00 | 0.00 | 74 | 1014.3 |
| 20260502182703 | 43 | 274 | 3.0 | 7.0 | 0.00 | 0.00 | 0.00 | 74 | 1014.1 |
| 20260502182404 | 43 | 323 | 2.0 | 7.0 | 0.00 | 0.00 | 0.00 | 73 | 1014.1 |
| 20260502182203 | 43 | 299 | 1.0 | 5.0 | 0.00 | 0.00 | 0.00 | 73 | 1014.1 |
| 20260502181703 | 43 | 313 | 0.0 | 6.0 | 0.00 | 0.00 | 0.00 | 72 | 1014.0 |
| 20260502181304 | 44 | 322 | 3.0 | 6.0 | 0.00 | 0.00 | 0.00 | 72 | 1014.1 |
| 20260502181203 | 44 | 320 | 6.0 | 6.0 | 0.00 | 0.00 | 0.00 | 72 | 1014.1 |
| 20260502180703 | 44 | 313 | 4.0 | 4.0 | 0.00 | 0.00 | 0.00 | 72 | 1014.3 |
| 20260502180203 | 43 | 268 | 0.0 | 7.0 | 0.00 | 0.00 | 0.00 | 73 | 1014.1 |
| 20260502170203 | 44 | 323 | 2.0 | 4.0 | 0.00 | 0.00 | 0.00 | 71 | 1014.1 |
| 20260502164203 | 44 | 292 | 2.0 | 6.0 | 0.00 | 0.00 | 0.00 | 72 | 1014.4 |
| 20260502163703 | 44 | 291 | 4.0 | 7.0 | 0.00 | 0.00 | 0.00 | 72 | 1014.4 |
| 20260502163404 | 45 | 292 | 0.0 | 4.0 | 0.00 | 0.00 | 0.00 | 72 | 1014.5 |
| 20260502163203 | 44 | 292 | 0.0 | 5.0 | 0.00 | 0.00 | 0.00 | 72 | 1014.5 |
| 20260502162703 | 44 | 312 | 1.0 | 5.0 | 0.00 | 0.00 | 0.00 | 72 | 1014.5 |
| 20260502162305 | 44 | 282 | 3.0 | 4.0 | 0.00 | 0.00 | 0.00 | 73 | 1014.6 |
| 20260502162203 | 44 | 278 | 0.0 | 4.0 | 0.00 | 0.00 | 0.00 | 73 | 1014.6 |
| 20260502161703 | 44 | 277 | 0.0 | 4.0 | 0.00 | 0.00 | 0.00 | 72 | 1014.7 |
| 20260502161203 | 44 | 289 | 1.0 | 5.0 | 0.00 | 0.00 | 0.00 | 72 | 1014.7 |
| 20260502160703 | 44 | 272 | 0.0 | 5.0 | 0.00 | 0.00 | 0.00 | 73 | 1014.7 |
| 20260502160203 | 44 | 303 | 3.0 | 7.0 | 0.00 | 0.00 | 0.00 | 73 | 1014.7 |
| 20260502160104 | 44 | 272 | 3.0 | 7.0 | 0.00 | 0.00 | 0.00 | 72 | 1014.8 |
| 20260502152203 | 44 | 315 | 0.0 | 1.0 | 0.00 | 0.00 | 0.00 | 74 | 1015.2 |
| 20260502151703 | 44 | 327 | 0.0 | 4.0 | 0.00 | 0.00 | 0.00 | 73 | 1015.2 |
| 20260502151203 | 44 | 296 | 2.0 | 5.0 | 0.00 | 0.00 | 0.00 | 73 | 1015.2 |
| 20260502150703 | 45 | 291 | 0.0 | 7.0 | 0.00 | 0.00 | 0.00 | 72 | 1015.3 |
| 20260502150604 | 45 | 275 | 4.0 | 5.0 | 0.00 | 0.00 | 0.00 | 72 | 1015.3 |
| 20260502150203 | 45 | 292 | 2.0 | 5.0 | 0.00 | 0.00 | 0.00 | 71 | 1015.4 |
| 20260502130703 | 42 | 319 | 5.0 | 7.0 | 0.00 | 0.00 | 0.00 | 81 | 1016.1 |
| 20260502130504 | 42 | 288 | 3.0 | 7.0 | 0.00 | 0.00 | 0.00 | 81 | 1016.1 |
| 20260502130203 | 42 | 298 | 1.0 | 7.0 | 0.00 | 0.00 | 0.00 | 80 | 1016.1 |
| 20260502123703 | 42 | 317 | 1.0 | 5.0 | 0.00 | 0.00 | 0.00 | 78 | 1016.4 |
| 20260502123203 | 42 | 222 | 1.0 | 7.0 | 0.00 | 0.00 | 0.00 | 77 | 1016.3 |
| 20260502122703 | 42 | 285 | 2.0 | 6.0 | 0.00 | 0.00 | 0.00 | 76 | 1016.3 |
| 20260502122203 | 42 | 326 | 3.0 | 6.0 | 0.00 | 0.00 | 0.00 | 76 | 1016.3 |
| 20260502122104 | 42 | 305 | 2.0 | 7.0 | 0.00 | 0.00 | 0.00 | 76 | 1016.3 |
| 20260502121703 | 42 | 306 | 2.0 | 8.0 | 0.00 | 0.00 | 0.00 | 74 | 1016.3 |
| 20260502121203 | 43 | 351 | 1.0 | 8.0 | 0.00 | 0.00 | 0.00 | 73 | 1016.2 |
| 20260502121005 | 43 | 303 | 4.0 | 7.0 | 0.00 | 0.00 | 0.00 | 73 | 1016.2 |
| 20260502120703 | 43 | 296 | 2.0 | 7.0 | 0.00 | 0.00 | 0.00 | 73 | 1016.2 |
| 20260502120203 | 43 | 305 | 3.0 | 8.0 | 0.00 | 0.00 | 0.00 | 71 | 1016.2 |
| 20260502115904 | 43 | 289 | 4.0 | 8.0 | 0.00 | 0.00 | 0.00 | 72 | 1016.2 |
| 20260502115703 | 43 | 317 | 2.0 | 8.0 | 0.00 | 0.00 | 0.00 | 72 | 1016.2 |
| 20260502115203 | 43 | 329 | 0.0 | 5.0 | 0.00 | 0.00 | 0.00 | 72 | 1016.3 |
| 20260502114804 | 43 | 300 | 3.0 | 8.0 | 0.00 | 0.00 | 0.00 | 72 | 1016.3 |
| 20260502114703 | 43 | 1 | 0.0 | 8.0 | 0.00 | 0.00 | 0.00 | 72 | 1016.3 |
| 20260502114203 | 43 | 302 | 2.0 | 7.0 | 0.00 | 0.00 | 0.00 | 73 | 1016.4 |
| 20260502113703 | 43 | 127 | 1.0 | 5.0 | 0.00 | 0.00 | 0.00 | 73 | 1016.5 |
| 20260502113203 | 43 | 310 | 2.0 | 5.0 | 0.00 | 0.00 | 0.00 | 72 | 1016.4 |
| 20260502112703 | 43 | 324 | 2.0 | 6.0 | 0.00 | 0.00 | 0.00 | 72 | 1016.6 |
| 20260502112604 | 42 | 330 | 4.0 | 6.0 | 0.00 | 0.00 | 0.00 | 72 | 1016.6 |
| 20260502112203 | 43 | 329 | 4.0 | 6.0 | 0.00 | 0.00 | 0.00 | 71 | 1016.6 |
| 20260502111703 | 43 | 313 | 4.0 | 8.0 | 0.00 | 0.00 | 0.00 | 70 | 1016.5 |
| 20260502111505 | 43 | 315 | 4.0 | 8.0 | 0.00 | 0.00 | 0.00 | 69 | 1016.6 |
| 20260502111203 | 43 | 315 | 3.0 | 5.0 | 0.00 | 0.00 | 0.00 | 69 | 1016.6 |
| 20260502110703 | 44 | 305 | 4.0 | 7.0 | 0.00 | 0.00 | 0.00 | 69 | 1016.5 |
| 20260502110404 | 44 | 257 | 1.0 | 3.0 | 0.00 | 0.00 | 0.00 | 70 | 1016.5 |
| 20260502110203 | 44 | 302 | 0.0 | 2.0 | 0.00 | 0.00 | 0.00 | 70 | 1016.5 |
| 20260502105703 | 43 | 298 | 1.0 | 3.0 | 0.00 | 0.00 | 0.00 | 69 | 1016.5 |
| 20260502105306 | 43 | 309 | 0.0 | 5.0 | 0.00 | 0.00 | 0.00 | 69 | 1016.6 |
| 20260502105203 | 43 | 309 | 0.0 | 5.0 | 0.00 | 0.00 | 0.00 | 69 | 1016.5 |
| 20260502104703 | 43 | 295 | 0.0 | 5.0 | 0.00 | 0.00 | 0.00 | 69 | 1016.6 |
| 20260502104203 | 43 | 313 | 0.0 | 6.0 | 0.00 | 0.00 | 0.00 | 68 | 1016.7 |
| 20260502103703 | 43 | 291 | 0.0 | 8.0 | 0.00 | 0.00 | 0.00 | 67 | 1016.8 |
| 20260502103203 | 43 | 300 | 2.0 | 8.0 | 0.00 | 0.00 | 0.00 | 66 | 1016.9 |
| 20260502103105 | 43 | 284 | 0.0 | 8.0 | 0.00 | 0.00 | 0.00 | 65 | 1016.9 |
| 20260502102703 | 43 | 302 | 3.0 | 8.0 | 0.00 | 0.00 | 0.00 | 63 | 1016.9 |
| 20260502102203 | 44 | 272 | 0.0 | 7.0 | 0.00 | 0.00 | 0.00 | 62 | 1016.8 |
| 20260502102005 | 44 | 260 | 2.0 | 7.0 | 0.00 | 0.00 | 0.00 | 62 | 1016.8 |
| 20260502101703 | 44 | 291 | 1.0 | 7.0 | 0.00 | 0.00 | 0.00 | 62 | 1016.8 |
| 20260502101203 | 44 | 285 | 3.0 | 11.0 | 0.00 | 0.00 | 0.00 | 62 | 1016.7 |
| 20260502100905 | 44 | 288 | 6.0 | 8.0 | 0.00 | 0.00 | 0.00 | 62 | 1016.7 |
| 20260502100703 | 44 | 303 | 3.0 | 8.0 | 0.00 | 0.00 | 0.00 | 62 | 1016.6 |
| 20260502100203 | 43 | 323 | 0.0 | 5.0 | 0.00 | 0.00 | 0.00 | 63 | 1016.7 |
| 20260502091405 | 45 | 217 | 1.0 | 6.0 | 0.00 | 0.00 | 0.00 | 54 | 1016.6 |
| 20260502091204 | 45 | 300 | 4.0 | 5.0 | 0.00 | 0.00 | 0.00 | 53 | 1016.5 |
| 20260502090704 | 45 | 291 | 1.0 | 6.0 | 0.00 | 0.00 | 0.00 | 53 | 1016.5 |
| 20260502090305 | 45 | 319 | 0.0 | 6.0 | 0.00 | 0.00 | 0.00 | 52 | 1016.5 |
| 20260502090204 | 45 | 312 | 5.0 | 6.0 | 0.00 | 0.00 | 0.00 | 52 | 1016.5 |
| 20260502071305 | 44 | 246 | 3.0 | 6.0 | 0.00 | 0.00 | 0.00 | 45 | 1016.9 |
| 20260502071204 | 44 | 284 | 0.0 | 4.0 | 0.00 | 0.00 | 0.00 | 46 | 1017.1 |
| 20260502070704 | 44 | 341 | 1.0 | 8.0 | 0.00 | 0.00 | 0.00 | 44 | 1017.1 |
| 20260502070204 | 44 | 282 | 3.0 | 6.0 | 0.00 | 0.00 | 0.00 | 44 | 1016.9 |
| 20260502065704 | 44 | 331 | 0.0 | 9.0 | 0.00 | 0.00 | 0.00 | 45 | 1017.2 |
| 20260502065204 | 44 | 191 | 1.0 | 7.0 | 0.00 | 0.00 | 0.00 | 45 | 1017.1 |
| 20260502065105 | 44 | 305 | 3.0 | 6.0 | 0.00 | 0.00 | 0.00 | 45 | 1017.1 |
| 20260502064704 | 43 | 296 | 0.0 | 5.0 | 0.00 | 0.00 | 0.00 | 46 | 1017.2 |
| 20260502064204 | 43 | 291 | 4.0 | 6.0 | 0.00 | 0.00 | 0.00 | 47 | 1017.5 |
| 20260502064005 | 42 | 315 | 2.0 | 7.0 | 0.00 | 0.00 | 0.00 | 47 | 1017.4 |
| 20260502063704 | 42 | 324 | 1.0 | 7.0 | 0.00 | 0.00 | 0.00 | 47 | 1017.4 |
| 20260502063204 | 42 | 322 | 2.0 | 7.0 | 0.00 | 0.00 | 0.00 | 47 | 1017.5 |
| 20260502062905 | 41 | 298 | 3.0 | 8.0 | 0.00 | 0.00 | 0.00 | 48 | 1017.4 |
| 20260502062704 | 41 | 282 | 5.0 | 8.0 | 0.00 | 0.00 | 0.00 | 47 | 1017.2 |
| 20260502062204 | 41 | 295 | 3.0 | 5.0 | 0.00 | 0.00 | 0.00 | 48 | 1017.3 |
| 20260502061805 | 41 | 286 | 2.0 | 4.0 | 0.00 | 0.00 | 0.00 | 49 | 1017.4 |
| 20260502061704 | 41 | 265 | 1.0 | 4.0 | 0.00 | 0.00 | 0.00 | 49 | 1017.4 |
| 20260502061204 | 41 | 303 | 4.0 | 5.0 | 0.00 | 0.00 | 0.00 | 49 | 1017.5 |
| 20260502060704 | 40 | 258 | 1.0 | 5.0 | 0.00 | 0.00 | 0.00 | 49 | 1017.5 |
| 20260502060204 | 40 | 302 | 3.0 | 5.0 | 0.00 | 0.00 | 0.00 | 49 | 1017.6 |
| 20260502055704 | 40 | 306 | 0.0 | 5.0 | 0.00 | 0.00 | 0.00 | 49 | 1017.6 |
| 20260502055605 | 40 | 313 | 2.0 | 5.0 | 0.00 | 0.00 | 0.00 | 49 | 1017.5 |
| 20260502055204 | 40 | 292 | 3.0 | 6.0 | 0.00 | 0.00 | 0.00 | 48 | 1017.6 |
| 20260502054704 | 40 | 286 | 2.0 | 6.0 | 0.00 | 0.00 | 0.00 | 49 | 1017.6 |
| 20260502054505 | 40 | 306 | 3.0 | 4.0 | 0.00 | 0.00 | 0.00 | 49 | 1017.7 |
| 20260502054204 | 40 | 317 | 0.0 | 3.0 | 0.00 | 0.00 | 0.00 | 50 | 1017.6 |
| 20260502053704 | 40 | 323 | 2.0 | 6.0 | 0.00 | 0.00 | 0.00 | 49 | 1017.6 |
| 20260502053405 | 40 | 288 | 0.0 | 7.0 | 0.00 | 0.00 | 0.00 | 50 | 1017.7 |
| 20260502053204 | 40 | 288 | 0.0 | 7.0 | 0.00 | 0.00 | 0.00 | 50 | 1017.6 |
| 20260502052704 | 39 | 322 | 3.0 | 4.0 | 0.00 | 0.00 | 0.00 | 51 | 1017.6 |
| 20260502052306 | 39 | 303 | 2.0 | 6.0 | 0.00 | 0.00 | 0.00 | 52 | 1017.7 |
| 20260502052204 | 39 | 313 | 1.0 | 6.0 | 0.00 | 0.00 | 0.00 | 52 | 1017.7 |
| 20260502051704 | 38 | 320 | 0.0 | 3.0 | 0.00 | 0.00 | 0.00 | 53 | 1017.7 |
| 20260502051204 | 38 | 319 | 0.0 | 3.0 | 0.00 | 0.00 | 0.00 | 53 | 1017.7 |
| 20260502050704 | 38 | 310 | 0.0 | 6.0 | 0.00 | 0.00 | 0.00 | 54 | 1017.8 |
| 20260502050204 | 38 | 292 | 1.0 | 6.0 | 0.00 | 0.00 | 0.00 | 54 | 1017.7 |
| 20260502050105 | 38 | 281 | 1.0 | 6.0 | 0.00 | 0.00 | 0.00 | 54 | 1017.8 |
| 20260502045704 | 38 | 302 | 2.0 | 7.0 | 0.00 | 0.00 | 0.00 | 54 | 1018.0 |
| 20260502045204 | 37 | 289 | 2.0 | 7.0 | 0.00 | 0.00 | 0.00 | 55 | 1017.8 |
| 20260502045005 | 37 | 267 | 4.0 | 7.0 | 0.00 | 0.00 | 0.00 | 55 | 1018.0 |
| 20260502044704 | 37 | 316 | 4.0 | 6.0 | 0.00 | 0.00 | 0.00 | 55 | 1018.0 |
| 20260502044204 | 37 | 277 | 0.0 | 4.0 | 0.00 | 0.00 | 0.00 | 56 | 1017.8 |
| 20260502043905 | 37 | 274 | 2.0 | 6.0 | 0.00 | 0.00 | 0.00 | 56 | 1017.8 |
| 20260502043704 | 37 | 195 | 2.0 | 6.0 | 0.00 | 0.00 | 0.00 | 56 | 1018.0 |
| 20260502043204 | 37 | 260 | 1.0 | 4.0 | 0.00 | 0.00 | 0.00 | 56 | 1018.0 |
| 20260502042805 | 37 | 291 | 0.0 | 4.0 | 0.00 | 0.00 | 0.00 | 56 | 1018.0 |
| 20260502042704 | 37 | 291 | 0.0 | 4.0 | 0.00 | 0.00 | 0.00 | 56 | 1018.0 |
| 20260502042204 | 36 | 303 | 0.0 | 6.0 | 0.00 | 0.00 | 0.00 | 56 | 1018.0 |
| 20260502041704 | 36 | 288 | 4.0 | 4.0 | 0.00 | 0.00 | 0.00 | 57 | 1018.0 |
| 20260502041204 | 35 | 293 | 2.0 | 4.0 | 0.00 | 0.00 | 0.00 | 59 | 1018.0 |
| 20260502040704 | 35 | 299 | 0.0 | 3.0 | 0.00 | 0.00 | 0.00 | 61 | 1017.8 |
| 20260502040605 | 34 | 302 | 2.0 | 3.0 | 0.00 | 0.00 | 0.00 | 61 | 1018.0 |
| 20260502040204 | 34 | 230 | 0.0 | 0.0 | 0.00 | 0.00 | 0.00 | 61 | 1018.0 |
| 20260502035704 | 34 | 230 | 0.0 | 0.0 | 0.00 | 0.00 | 0.00 | 61 | 1018.0 |
| 20260502035505 | 34 | 230 | 0.0 | 0.0 | 0.00 | 0.00 | 0.00 | 62 | 1018.1 |
| 20260502035204 | 34 | 230 | 0.0 | 0.0 | 0.00 | 0.00 | 0.00 | 62 | 1018.2 |
| 20260502034704 | 34 | 230 | 0.0 | 0.0 | 0.00 | 0.00 | 0.00 | 61 | 1018.3 |
| 20260502034405 | 35 | 230 | 0.0 | 0.0 | 0.00 | 0.00 | 0.00 | 61 | 1018.2 |
| 20260502034204 | 35 | 230 | 0.0 | 0.0 | 0.00 | 0.00 | 0.00 | 61 | 1018.2 |
| 20260502033704 | 35 | 230 | 0.0 | 2.0 | 0.00 | 0.00 | 0.00 | 60 | 1018.3 |
| 20260502033305 | 35 | 336 | 0.0 | 0.0 | 0.00 | 0.00 | 0.00 | 60 | 1018.3 |
| 20260502033204 | 35 | 336 | 0.0 | 0.0 | 0.00 | 0.00 | 0.00 | 60 | 1018.3 |
| 20260502032704 | 36 | 336 | 0.0 | 2.0 | 0.00 | 0.00 | 0.00 | 60 | 1018.3 |
| 20260502032204 | 36 | 286 | 0.0 | 0.0 | 0.00 | 0.00 | 0.00 | 58 | 1018.3 |
| 20260502031704 | 36 | 286 | 0.0 | 2.0 | 0.00 | 0.00 | 0.00 | 58 | 1018.3 |
| 20260502031204 | 37 | 120 | 0.0 | 5.0 | 0.00 | 0.00 | 0.00 | 57 | 1018.3 |
| 20260502031105 | 37 | 120 | 0.0 | 8.0 | 0.00 | 0.00 | 0.00 | 56 | 1018.4 |
| 20260502030704 | 36 | 232 | 5.0 | 8.0 | 0.00 | 0.00 | 0.00 | 56 | 1018.4 |
| 20260502030204 | 37 | 239 | 0.0 | 4.0 | 0.00 | 0.00 | 0.00 | 57 | 1018.4 |
| 20260502030005 | 37 | 239 | 0.0 | 5.0 | 0.00 | 0.00 | 0.00 | 57 | 1018.4 |
| 20260502025704 | 37 | 258 | 0.0 | 5.0 | 0.00 | 0.00 | 0.00 | 57 | 1018.5 |
| 20260502025204 | 37 | 215 | 1.0 | 8.0 | 0.00 | 0.00 | 0.00 | 56 | 1018.6 |
| 20260502024905 | 37 | 281 | 2.0 | 5.0 | 0.00 | 0.00 | 0.00 | 56 | 1018.5 |
| 20260502024704 | 37 | 262 | 2.0 | 5.0 | 0.00 | 0.00 | 0.00 | 55 | 1018.6 |
| 20260502024204 | 38 | 237 | 1.0 | 6.0 | 0.00 | 0.00 | 0.00 | 55 | 1018.7 |
| 20260502023805 | 38 | 299 | 1.0 | 7.0 | 0.00 | 0.00 | 0.00 | 53 | 1018.6 |
| 20260502023704 | 38 | 300 | 2.0 | 7.0 | 0.00 | 0.00 | 0.00 | 53 | 1018.6 |
| 20260502023204 | 38 | 275 | 1.0 | 8.0 | 0.00 | 0.00 | 0.00 | 52 | 1018.9 |
| 20260502022704 | 39 | 289 | 6.0 | 12.0 | 0.00 | 0.00 | 0.00 | 51 | 1018.7 |
| 20260502022204 | 39 | 291 | 9.0 | 9.0 | 0.00 | 0.00 | 0.00 | 52 | 1018.7 |
| 20260502021704 | 39 | 313 | 2.0 | 10.0 | 0.00 | 0.00 | 0.00 | 51 | 1018.6 |
| 20260502021605 | 39 | 258 | 4.0 | 10.0 | 0.00 | 0.00 | 0.00 | 51 | 1018.7 |
| 20260502021204 | 39 | 241 | 6.0 | 11.0 | 0.00 | 0.00 | 0.00 | 51 | 1018.7 |
| 20260502020704 | 39 | 184 | 5.0 | 9.0 | 0.00 | 0.00 | 0.00 | 52 | 1018.9 |
| 20260502020505 | 39 | 341 | 2.0 | 11.0 | 0.00 | 0.00 | 0.00 | 52 | 1018.9 |
| 20260502020204 | 39 | 260 | 9.0 | 11.0 | 0.00 | 0.00 | 0.00 | 52 | 1018.9 |
| 20260502015704 | 39 | 286 | 2.0 | 11.0 | 0.00 | 0.00 | 0.00 | 52 | 1019.0 |
| 20260502015405 | 39 | 265 | 3.0 | 11.0 | 0.00 | 0.00 | 0.00 | 52 | 1019.1 |
| 20260502015204 | 39 | 303 | 5.0 | 9.0 | 0.00 | 0.00 | 0.00 | 52 | 1019.0 |
| 20260502014704 | 39 | 288 | 0.0 | 8.0 | 0.00 | 0.00 | 0.00 | 52 | 1019.2 |
| 20260502014305 | 39 | 270 | 2.0 | 10.0 | 0.00 | 0.00 | 0.00 | 53 | 1019.2 |
| 20260502014204 | 39 | 306 | 3.0 | 10.0 | 0.00 | 0.00 | 0.00 | 53 | 1019.2 |
| 20260502013704 | 38 | 298 | 4.0 | 9.0 | 0.00 | 0.00 | 0.00 | 53 | 1019.3 |
| 20260502013204 | 39 | 289 | 4.0 | 9.0 | 0.00 | 0.00 | 0.00 | 53 | 1019.5 |
| 20260502012704 | 38 | 300 | 5.0 | 9.0 | 0.00 | 0.00 | 0.00 | 53 | 1019.6 |
| 20260502012204 | 39 | 284 | 7.0 | 7.0 | 0.00 | 0.00 | 0.00 | 54 | 1019.6 |
| 20260502012105 | 39 | 310 | 4.0 | 7.0 | 0.00 | 0.00 | 0.00 | 53 | 1019.8 |
| 20260502011704 | 39 | 265 | 3.0 | 9.0 | 0.00 | 0.00 | 0.00 | 53 | 1019.9 |
| 20260502011204 | 39 | 307 | 3.0 | 10.0 | 0.00 | 0.00 | 0.00 | 52 | 1019.9 |
| 20260502011005 | 39 | 274 | 0.0 | 10.0 | 0.00 | 0.00 | 0.00 | 52 | 1019.9 |
| 20260502010704 | 39 | 261 | 5.0 | 12.0 | 0.00 | 0.00 | 0.00 | 52 | 1020.0 |
| 20260502010204 | 39 | 310 | 2.0 | 14.0 | 0.00 | 0.00 | 0.00 | 52 | 1020.0 |
| 20260502005905 | 39 | 267 | 7.0 | 12.0 | 0.00 | 0.00 | 0.00 | 52 | 1020.1 |
| 20260502005704 | 39 | 279 | 2.0 | 12.0 | 0.00 | 0.00 | 0.00 | 52 | 1020.1 |
| 20260502005204 | 39 | 227 | 1.0 | 11.0 | 0.00 | 0.00 | 0.00 | 53 | 1020.1 |